Location: Jarocin
(51.9626°N, 17.5030°E)
Time: 15:02:09
(UTC+01:00)

Envisat - Visible Passes

Search period start: 18 March 2019 00:00
Search period end: 28 March 2019 00:00
Orbit: 764 x 766 km, 98.2° (Epoch: 18 March)

Date Brightness Start Highest point End Pass type
(mag) Time Alt. Az. Time Alt. Az. Time Alt. Az.
18 Mar 4.2 18:49:46 10° S 18:54:39 46° W 18:59:34 10° NNW visible
19 Mar 5.9 19:54:37 10° WSW 19:57:34 15° W 20:00:31 10° NW visible
20 Mar 5.1 19:15:58 10° SSW 19:20:22 29° W 19:24:49 10° NNW visible
21 Mar 3.8 18:38:24 10° S 18:43:23 57° W 18:48:25 10° NNW visible
22 Mar 5.8 19:42:40 10° SW 19:46:12 19° W 19:49:45 10° NW visible
23 Mar 4.8 19:04:25 10° SSW 19:09:04 35° W 19:13:45 10° NNW visible
24 Mar 6.2 20:10:32 10° WSW 20:12:08 11° W 20:13:44 10° WNW visible
25 Mar 5.6 19:30:53 10° SW 19:34:50 23° W 19:38:50 10° NW visible
26 Mar 4.4 18:52:57 10° S 18:57:47 43° W 19:02:38 10° NNW visible
27 Mar 6.0 19:58:05 10° WSW 20:00:44 14° W 20:03:24 10° NW visible
